Regional Weather Roundup
Issued by NWS

Home | Current Version | Previous Version | Graphics & Text | Print | Product List | Glossary On
Versions: 1 2 3 4 5 6 7 8 9 10 11 12 13 14 15 16 17 18 19 20 21 22 23 24 25 26 27 28 29 30 31 32 33 34 35 36 37 38 39 40 41 42 43 44 45 46 47 48 49 50
000
ASUS43 KLOT 061158
RWRIL

ILLINOIS REGIONAL WEATHER ROUNDUP
NATIONAL WEATHER SERVICE CHICAGO/ROMEOVILLE IL
600 AM CST FRI MAR 06 2015

NOTE: "FAIR" INDICATES FEW OR NO CLOUDS BELOW 12,000 FEET WITH NO
SIGNIFICANT WEATHER AND/OR OBSTRUCTIONS TO VISIBILITY.

* THESE STATIONS ARE NOT UNDER NWS QUALITY CONTROL. THEY ALSO MAY NOT
  REPORT WEATHER SUCH AS PRECIPITATION OR FOG.

ILZ001-002-007-009-015-016-024-061300-
NORTHWEST ILLINOIS

CITY           SKY/WX    TMP DP  RH WIND       PRES   REMARKS
MOLINE         CLEAR      8  -1  66 S7        30.40F WCI  -3
6HR MIN TEMP:   0; 6HR MAX TEMP:   9;

$$

ILZ003-004-008-010-011-017-018-061300-
NORTH CENTRAL ILLINOIS

CITY           SKY/WX    TMP DP  RH WIND       PRES   REMARKS
ROCKFORD       NOT AVBL
$$

ILZ005-006-012>014-019>023-061300-
NORTHEAST ILLINOIS

CITY           SKY/WX    TMP DP  RH WIND       PRES   REMARKS
CHICAGO-OHARE  MOCLDY     5  -1  76 S9        30.43F WCI  -9
6HR MIN TEMP:   0; 6HR MAX TEMP:   6;

CHICAGO-MIDWAY NOT AVBL
AURORA         PTCLDY     1  -6  72 S5        30.45S WCI  -9
6HR MIN TEMP:  -5; 6HR MAX TEMP:   2;

WAUKEGAN       NOT AVBL
DUPAGE AIRPORT PTCLDY     2  -3  80 S9        30.43F WCI -13
6HR MIN TEMP:  -2; 6HR MAX TEMP:   2;

WHEELING       PTCLDY     6  -2  69 S8        30.45F WCI  -7
6HR MIN TEMP:   4; 6HR MAX TEMP:   7;

NORTHERLY ISL    N/A      8   0  69 SW9         N/A  WCI  -5
$$

LMZ740>746-061300-
SOUTHERN LAKE MICHIGAN

STATION/POSITION SKY/WX   TEMP    WIND        PRES    VSBY  WAVE
                          AIR SEA DIR/SP/G                  HT/PER
                          (F)     (DEG/KT/KT) (MB)    (MI)  (FT/S)
WAUKEGAN HARBOR             6                   N/A
HARRISON CRIB               9     190/ 16/ 20   N/A
BURNHAM HARBOR              9     240/  4/ 10   N/A
CALUMET HARBOR              6     200/  8/ 10 1030.4F
MICHIGAN CITY               5     170/  8/  9   N/A
$$

ILZ025>027-034>036-040-047-049-050-058-095>099-061300-
WEST-CENTRAL ILLINOIS

CITY           SKY/WX    TMP DP  RH WIND       PRES   REMARKS
$$

ILZ028>032-037-038-041>044-048-051>054-059>061-061300-
CENTRAL ILLINOIS

CITY           SKY/WX    TMP DP  RH WIND       PRES   REMARKS
PEORIA         NOT AVBL
SPRINGFIELD    CLEAR      9   0  67 S14       30.50F WCI  -7
6HR MIN TEMP:   0; 6HR MAX TEMP:   9;

TAYLORVILLE    NOT AVBL
$$

ILZ033-039-045-046-055>057-062-063-061300-
EAST-CENTRAL ILLINOIS

CITY           SKY/WX    TMP DP  RH WIND       PRES   REMARKS
CHAMPAIGN      PTCLDY    -1  -8  72 S8        30.50F WCI -15
$$

ILZ079-100>102-061300-
SOUTHWEST ILLINOIS

CITY           SKY/WX    TMP DP  RH WIND       PRES   REMARKS
CAHOKIA*       CLEAR     15   6  67 S5        30.55S WCI   8
$$

ILZ064>066-069>071-074>076-080>082-084>086-088>090-092>094-061300-
SOUTH-CENTRAL ILLINOIS

CITY           SKY/WX    TMP DP  RH WIND       PRES   REMARKS
CARBONDALE     MOCLDY    -1  -5  82 CALM      30.59R
6HR MIN TEMP:  -2; 6HR MAX TEMP:   7;

$$

ILZ067-068-072-073-078-083-087-091-061300-
SOUTHEAST ILLINOIS

CITY           SKY/WX    TMP DP  RH WIND       PRES   REMARKS
$$

ABBREVIATIONS USED IN REMARKS
   TC - TEMPERATURE IN CELSIUS
  WCI - WIND CHILL INDEX
   HX - HEAT INDEX
  VSB - VISIBILITY
$$



USA.gov is the U.S. government's official web portal to all federal, state and local government web resources and services.